Weather History for Delaware, OH

Change the Weather History Date:

Tuesday, April 2, 2013

  Actual Average Record
Temperature  
Mean Temperature 31 °F -  
Max Temperature 41 °F 57 °F 83 °F (1963)
Min Temperature 21 °F 34 °F 16 °F (1964)
Degree Days  
Heating Degree Days 34    
Moisture  
Dew Point 17 °F    
Average Humidity 56    
Maximum Humidity 80    
Minimum Humidity 33    
Precipitation  
Precipitation 0.00 in - - ()
Sea Level Pressure  
Sea Level Pressure 30.18 in    
Wind  
Wind Speed 7 mph (WNW)    
Max Wind Speed 16 mph    
Max Gust Speed 23 mph    
Visibility 10 miles    
Events      
Averages and records for this station are not official NWS values.
T = Trace of Precipitation, MM = Missing Value Source: NWS Daily Summary

Daily Weather History Graph

Daily Weather History Graph

Search for Another Location

Airport:

Trip Planner

Search our weather history database for the weather conditions in past years. The results will help you decide how hot, cold, wet, or windy it might be!

Date:

Astronomy

Apr. 02, 2013 Rise Set
Actual Time 7:14 AM EDT 7:58 PM EDT
Civil Twilight 6:46 AM EDT 8:25 PM EDT
Nautical Twilight 6:14 AM EDT 8:58 PM EDT
Astronomical Twilight 5:40 AM EDT 9:32 PM EDT
Moon 2:02 AM EDT 12:03 PM EDT
Length of Visible Light 13h 38m
Length of Day
12h 43m
Waning Gibbous, 56% of the Moon is Illuminated
Apr 2
Waning Gibbous
Apr 3
Last Quarter
Apr 10
New
Apr 18
First Quarter
Apr 25
Full

Hourly Weather History & Observations

Time (EDT) Temp. Windchill Dew Point Humidity Pressure Visibility Wind Dir Wind Speed Gust Speed Precip Events Conditions
12:16 AM 28.4 °F 21.2 °F 17.6 °F 64% 30.11 in 10.0 mi NNW 6.9 mph - N/A   Scattered Clouds
12:36 AM 28.4 °F 21.2 °F 17.6 °F 64% 30.11 in 10.0 mi NNW 6.9 mph - N/A   Mostly Cloudy
12:56 AM 28.4 °F 21.2 °F 17.6 °F 64% 30.12 in 10.0 mi NNW 6.9 mph - N/A   Mostly Cloudy
1:16 AM 28.4 °F 21.2 °F 15.8 °F 59% 30.12 in 10.0 mi NNW 6.9 mph - N/A   Mostly Cloudy
1:36 AM 26.6 °F 20.0 °F 15.8 °F 64% 30.12 in 10.0 mi NNW 5.8 mph - N/A   Mostly Cloudy
1:56 AM 26.6 °F 22.6 °F 15.8 °F 64% 30.12 in 10.0 mi NNW 3.5 mph - N/A   Scattered Clouds
2:16 AM 26.6 °F 22.6 °F 15.8 °F 64% 30.12 in 10.0 mi NNW 3.5 mph - N/A   Scattered Clouds
2:36 AM 26.6 °F 22.6 °F 14.0 °F 59% 30.12 in 10.0 mi NW 3.5 mph - N/A   Clear
2:56 AM 24.8 °F 20.5 °F 15.8 °F 69% 30.12 in 10.0 mi NW 3.5 mph - N/A   Clear
3:16 AM 24.8 °F 20.5 °F 14.0 °F 64% 30.12 in 10.0 mi NW 3.5 mph - N/A   Clear
3:36 AM 23.0 °F 18.4 °F 15.8 °F 74% 30.12 in 10.0 mi WNW 3.5 mph - N/A   Clear
3:56 AM 23.0 °F 17.0 °F 15.8 °F 74% 30.12 in 10.0 mi WNW 4.6 mph - N/A   Clear
4:16 AM 23.0 °F 15.8 °F 17.6 °F 80% 30.12 in 10.0 mi WNW 5.8 mph - N/A   Clear
4:36 AM 23.0 °F 17.0 °F 15.8 °F 74% 30.12 in 10.0 mi WNW 4.6 mph - N/A   Clear
4:56 AM 23.0 °F 17.0 °F 15.8 °F 74% 30.12 in 10.0 mi West 4.6 mph - N/A   Clear
5:16 AM 23.0 °F - 15.8 °F 74% 30.13 in 10.0 mi Calm Calm - N/A   Clear
5:36 AM 21.2 °F - 15.8 °F 80% 30.13 in 10.0 mi Calm Calm - N/A   Clear
5:56 AM 23.0 °F - 15.8 °F 74% 30.14 in 10.0 mi Calm Calm - N/A   Clear
6:15 AM 23.0 °F - 15.8 °F 74% 30.15 in 10.0 mi Calm Calm - N/A   Clear
6:36 AM 21.2 °F - 14.0 °F 74% 30.16 in 10.0 mi Calm Calm - N/A   Clear
6:56 AM 23.0 °F 18.4 °F 15.8 °F 74% 30.17 in 10.0 mi West 3.5 mph - N/A   Clear
7:15 AM 23.0 °F - 15.8 °F 74% 30.17 in 10.0 mi Calm Calm - N/A   Clear
7:36 AM 23.0 °F - 14.0 °F 68% 30.18 in 10.0 mi Calm Calm - N/A   Clear
7:56 AM 23.0 °F - 15.8 °F 74% 30.19 in 10.0 mi Calm Calm - N/A   Clear
8:16 AM 26.6 °F 22.6 °F 17.6 °F 69% 30.20 in 10.0 mi WSW 3.5 mph - N/A   Clear
8:36 AM 26.6 °F 22.6 °F 17.6 °F 69% 30.21 in 10.0 mi West 3.5 mph - N/A   Clear
8:56 AM 28.4 °F 23.3 °F 17.6 °F 64% 30.21 in 10.0 mi West 4.6 mph - N/A   Clear
9:16 AM 30.2 °F 23.4 °F 17.6 °F 60% 30.21 in 10.0 mi West 6.9 mph - N/A   Clear
9:36 AM 32.0 °F 26.4 °F 19.4 °F 60% 30.21 in 10.0 mi West 5.8 mph - N/A   Clear
9:56 AM 32.0 °F 24.2 °F 17.6 °F 55% 30.21 in 10.0 mi West 9.2 mph - N/A   Clear
10:36 AM 32.0 °F 23.0 °F 17.6 °F 55% 30.22 in 10.0 mi West 11.5 mph 17.3 mph N/A   Mostly Cloudy
10:56 AM 32.0 °F 23.6 °F 17.6 °F 55% 30.22 in 10.0 mi West 10.4 mph - N/A   Mostly Cloudy
11:16 AM 33.8 °F 24.8 °F 17.6 °F 52% 30.23 in 10.0 mi WNW 12.7 mph 17.3 mph N/A   Mostly Cloudy
11:36 AM 33.8 °F 25.3 °F 17.6 °F 52% 30.23 in 10.0 mi WNW 11.5 mph 16.1 mph N/A   Mostly Cloudy
11:56 AM 33.8 °F 25.8 °F 17.6 °F 52% 30.23 in 10.0 mi NW 10.4 mph 16.1 mph N/A   Overcast
12:16 PM 33.8 °F 26.4 °F 17.6 °F 52% 30.22 in 10.0 mi NNW 9.2 mph - N/A   Overcast
12:36 PM 33.8 °F 24.3 °F 17.6 °F 52% 30.22 in 10.0 mi WNW 13.8 mph - N/A   Overcast
12:56 PM 35.6 °F 28.0 °F 17.6 °F 48% 30.21 in 10.0 mi West 10.4 mph 18.4 mph N/A   Overcast
1:16 PM 35.6 °F 28.0 °F 17.6 °F 48% 30.21 in 10.0 mi WNW 10.4 mph - N/A   Mostly Cloudy
1:36 PM 35.6 °F 29.2 °F 15.8 °F 44% 30.20 in 10.0 mi West 8.1 mph - N/A   Scattered Clouds
1:56 PM 37.4 °F 29.8 °F 15.8 °F 41% 30.20 in 10.0 mi West 11.5 mph 18.4 mph N/A   Scattered Clouds
2:16 PM 41.0 °F 33.1 °F 15.8 °F 36% 30.18 in 10.0 mi NW 15.0 mph 23.0 mph N/A   Mostly Cloudy
2:36 PM 37.4 °F 28.9 °F 15.8 °F 41% 30.18 in 10.0 mi WNW 13.8 mph 21.9 mph N/A   Scattered Clouds
2:56 PM 41.0 °F 34.7 °F 14.0 °F 33% 30.18 in 10.0 mi WNW 10.4 mph 16.1 mph N/A   Scattered Clouds
3:16 PM 41.0 °F 35.2 °F 17.6 °F 39% 30.17 in 10.0 mi West 9.2 mph 18.4 mph N/A   Scattered Clouds
3:36 PM 41.0 °F 33.5 °F 15.8 °F 36% 30.17 in 10.0 mi West 13.8 mph 18.4 mph N/A   Mostly Cloudy
3:56 PM 39.2 °F 30.8 °F 17.6 °F 42% 30.17 in 10.0 mi WNW 15.0 mph 18.4 mph N/A   Mostly Cloudy
4:16 PM 41.0 °F 33.9 °F 17.6 °F 39% 30.17 in 10.0 mi West 12.7 mph 21.9 mph N/A   Mostly Cloudy
4:36 PM 41.0 °F 32.8 °F 17.6 °F 39% 30.16 in 10.0 mi NW 16.1 mph 20.7 mph N/A   Scattered Clouds
4:56 PM 37.4 °F 28.2 °F 17.6 °F 45% 30.17 in 10.0 mi WNW 16.1 mph - N/A   Scattered Clouds
5:16 PM 39.2 °F 30.8 °F 17.6 °F 42% 30.17 in 10.0 mi WNW 15.0 mph 18.4 mph N/A   Mostly Cloudy
5:36 PM 41.0 °F 32.8 °F 17.6 °F 39% 30.17 in 10.0 mi WNW 16.1 mph 21.9 mph N/A   Mostly Cloudy
6:23 PM 39.2 °F 31.6 °F 17.6 °F 42% 30.17 in 10.0 mi NW 12.7 mph 19.6 mph N/A   Mostly Cloudy
6:36 PM 39.2 °F 32.0 °F 17.6 °F 42% 30.18 in 10.0 mi WNW 11.5 mph 16.1 mph N/A   Mostly Cloudy
6:56 PM 37.4 °F 29.8 °F 17.6 °F 45% 30.18 in 10.0 mi WNW 11.5 mph - N/A   Mostly Cloudy
7:15 PM 37.4 °F 29.3 °F 17.6 °F 45% 30.18 in 10.0 mi WNW 12.7 mph 16.1 mph N/A   Clear
7:36 PM 35.6 °F 28.6 °F 17.6 °F 48% 30.19 in 10.0 mi WNW 9.2 mph - N/A   Clear
7:56 PM 35.6 °F 28.0 °F 17.6 °F 48% 30.19 in 10.0 mi West 10.4 mph - N/A   Clear
8:16 PM 33.8 °F 28.6 °F 17.6 °F 52% 30.19 in 10.0 mi West 5.8 mph - N/A   Clear
8:36 PM 33.8 °F 29.6 °F 17.6 °F 52% 30.19 in 10.0 mi West 4.6 mph - N/A   Scattered Clouds
8:56 PM 33.8 °F 29.6 °F 17.6 °F 52% 30.20 in 10.0 mi West 4.6 mph - N/A   Scattered Clouds
9:16 PM 32.0 °F - 17.6 °F 55% 30.20 in 10.0 mi Calm Calm - N/A   Scattered Clouds
9:36 PM 32.0 °F 28.7 °F 17.6 °F 55% 30.21 in 10.0 mi West 3.5 mph - N/A   Mostly Cloudy
9:56 PM 32.0 °F 26.4 °F 17.6 °F 55% 30.21 in 10.0 mi West 5.8 mph - N/A   Scattered Clouds
10:16 PM 32.0 °F 26.4 °F 19.4 °F 60% 30.22 in 10.0 mi West 5.8 mph - N/A   Clear
10:36 PM 32.0 °F 25.6 °F 17.6 °F 55% 30.23 in 10.0 mi WNW 6.9 mph - N/A   Clear
10:56 PM 32.0 °F 24.8 °F 15.8 °F 51% 30.23 in 10.0 mi NW 8.1 mph - N/A   Clear
11:16 PM 32.0 °F 26.4 °F 15.8 °F 51% 30.24 in 10.0 mi NW 5.8 mph - N/A   Clear
11:36 PM 32.0 °F 26.4 °F 15.8 °F 51% 30.24 in 10.0 mi NW 5.8 mph - N/A   Clear
11:56 PM 30.2 °F 23.4 °F 15.8 °F 55% 30.25 in 10.0 mi NW 6.9 mph - N/A   Clear